Retour au catalogue

STARLINK-34790

ActifCommunicationsVLEO
NORAD 65690·PAYLOAD·🇺🇸 United States

Lancé Sep 21, 2025 depuis Cape Canaveral Space Force Station

Loading…

Prochains Passages (prochaines 24 heures)

TLE

FraisSource: CelesTrak SupGP

Époque: Sep 15, 2026, 04:02 UTC

1 65690C 25212Q   26258.16854167 -.00026659  00000+0 -78775-3 0  2583
2 65690  53.1581 182.9481 0001298  88.1040 160.1368 15.34400011    10

Suivez STARLINK-34790 en temps réel avec AllMySat

Download on the App Store